Volver al catálogo

STARLINK-2273

ActivoComunicacionesVLEO
NORAD 47993·PAYLOAD·🇺🇸 United States

Lanzado Mar 24, 2021 desde Cape Canaveral Space Force Station

Loading…

Próximos Pases (próximas 24 horas)

TLE

ActualizadoSource: CelesTrak SupGP

Época: Sep 15, 2026, 02:17 UTC

1 47993C 21024S   26258.09562500  .00322030  00000+0  88848-3 0  2587
2 47993  53.1399  97.6108 0004826 221.4917  10.1490 15.92988629    16

Sigue STARLINK-2273 en tiempo real con AllMySat

Download on the App Store